Flag Weather past 2 weeks in Hohhot, Inner Mongolia, China

Now
39 °F

Passing clouds.


Feels Like: 39 °F
Forecast: 31 / 45 °F
Wind: 1 mph from Southeast

Location: Hohhot Airport

Current Time: Oct 31, 2014 at 9:09:36 PM

Latest Report: Oct 31, 2014 at 8:00 PM


Visibility: 4 mi

Pressure: 30.18 "Hg

Humidity: 100%

Dew point: 39 °F

Location of HohhotLocation

Historic Weather in Hohhot — Graph

°F

Hohhot temperature yesterday

Maximum temperature yesterday: 52 °F (at 2:00 PM)
Minimum temperature yesterday: 46 °F (at 1:00 AM)
Average temperature yesterday: 48 °F

Past Weeks' High & Low Weather Summary

 TemperatureHumidityPressure
High68 °F (Oct 25, 3:00 PM)100% (Oct 28, 12:00 PM)30.36 "Hg (Oct 28, 12:00 PM)
Low30 °F (Oct 17, 7:00 AM)17% (Oct 26, 4:00 PM)29.86 "Hg (Oct 24, 2:00 PM)
Average49 °F62%30.10 "Hg
* Reported Oct 16 7:00 PM — Oct 31 7:00 PM, Hohhot, Weather by CustomWeather, © 2014

Note: Actual official high and low records may vary slightly from our data, if they occured in-between our weather recording intervals... More about our weather records

Advertising

Hohhot weather history for previous 24 hours

 ConditionsComfort  
Time TempWeatherWind HumidityBarometerVisibility
7:00 PM
Oct 31
41 °FPassing clouds.1 mph100%30.15 "HgN/A
6:00 PM41 °FPassing clouds.3 mph100%30.15 "HgN/A
5:00 PM45 °FPassing clouds.3 mph87%30.12 "HgN/A
4:00 PM45 °FBroken clouds.8 mph87%30.12 "HgN/A
3:00 PM46 °FBroken clouds.8 mph76%30.09 "HgN/A
2:00 PM46 °FBroken clouds.1 mph76%30.09 "HgN/A
1:00 PM43 °FBroken clouds.1 mph81%30.09 "HgN/A
12:00 PM41 °FLight rain. Broken clouds.8 mph87%30.12 "HgN/A
11:00 AM43 °FLight rain. Broken clouds.13 mph93%30.09 "HgN/A
10:00 AM48 °FLight rain. Fog.6 mph100%30.07 "Hg1 mi
9:00 AM48 °FLight rain. Fog.8 mph100%30.07 "Hg1 mi
8:00 AM48 °FLight rain. Fog.8 mph100%30.07 "Hg1 mi
7:00 AM46 °FLight rain. Fog.1 mph100%30.07 "Hg2 mi
6:00 AM46 °FFog.1 mph100%30.07 "Hg2 mi
5:00 AM46 °FFog.1 mph100%30.07 "Hg2 mi
4:00 AM46 °FFog.1 mph100%30.07 "Hg2 mi
3:00 AM46 °FFog.1 mph100%30.07 "Hg2 mi
2:00 AM46 °FFog.1 mph100%30.09 "Hg2 mi
1:00 AM48 °FFog.3 mph100%30.12 "Hg2 mi
12:00 AM48 °FFog.1 mph100%30.12 "Hg1 mi
11:00 PM
Oct 30
48 °FFog.1 mph100%30.15 "Hg2 mi
10:00 PM48 °FFog.No wind100%30.15 "Hg2 mi
9:00 PM50 °FFog.1 mph94%30.12 "Hg2 mi
Weather by CustomWeather, © 2014

See weather overviewHow to use our weather pages